| time (UTC) | temp F | wind direction | speed knots | gust knots | rain 1hr in | rain 24hr in | rain mn in | humidity % | barometer mb |
| 20260906125527 | 65 | 192 | 0.9 | 4.3 | 0.00 | 0.00 | 0.00 | 97 | 1020.3 |
| 20260906125032 | 65 | 192 | 1.7 | 3.5 | 0.00 | 0.00 | 0.00 | 97 | 1020.3 |
| 20260906124532 | 65 | 192 | 0.9 | 4.3 | 0.00 | 0.00 | 0.00 | 97 | 1020.3 |
| 20260906124015 | 65 | 192 | 2.6 | 4.3 | 0.00 | 0.00 | 0.00 | 97 | 1020.2 |
| 20260906123517 | 65 | 267 | 0.9 | 2.6 | 0.00 | 0.00 | 0.00 | 97 | 1020.2 |
| 20260906123022 | 65 | 303 | 0.9 | 3.5 | 0.00 | 0.00 | 0.00 | 97 | 1020.2 |
| 20260906122523 | 65 | 146 | 1.7 | 3.5 | 0.00 | 0.00 | 0.00 | 97 | 1020.1 |
| 20260906122027 | 65 | 211 | 0.9 | 2.6 | 0.00 | 0.00 | 0.00 | 97 | 1020.1 |
| 20260906121530 | 65 | 242 | 1.7 | 3.5 | 0.00 | 0.00 | 0.00 | 97 | 1020.0 |
| 20260906121014 | 65 | 69 | 1.7 | 3.5 | 0.00 | 0.00 | 0.00 | 97 | 1019.9 |
| 20260906120515 | 65 | 131 | 0.9 | 2.6 | 0.00 | 0.00 | 0.00 | 97 | 1019.7 |
| 20260906120018 | 65 | 131 | 0.9 | 2.6 | 0.00 | 0.00 | 0.00 | 97 | 1019.6 |
| 20260906115521 | 65 | 131 | 0.9 | 2.6 | 0.00 | 0.00 | 0.00 | 97 | 1019.5 |
| 20260906115026 | 65 | 131 | 0.0 | 4.3 | 0.00 | 0.00 | 0.00 | 97 | 1019.4 |
| 20260906114547 | 65 | 292 | 1.7 | 6.1 | 0.00 | 0.00 | 0.00 | 97 | 1019.3 |
| 20260906114013 | 65 | 342 | 0.9 | 6.1 | 0.00 | 0.00 | 0.00 | 97 | 1019.2 |
| 20260906113516 | 65 | 156 | 0.9 | 4.3 | 0.00 | 0.00 | 0.00 | 97 | 1019.2 |
| 20260906113019 | 65 | 156 | 1.7 | 4.3 | 0.00 | 0.00 | 0.00 | 97 | 1019.1 |
| 20260906112540 | 65 | 319 | 1.7 | 3.5 | 0.00 | 0.00 | 0.00 | 97 | 1019.1 |
| 20260906112023 | 65 | 304 | 1.7 | 3.5 | 0.00 | 0.00 | 0.00 | 97 | 1019.0 |
| 20260906111524 | 65 | 143 | 0.9 | 3.5 | 0.00 | 0.00 | 0.00 | 97 | 1019.0 |
| 20260906111026 | 65 | 35 | 1.7 | 3.5 | 0.00 | 0.00 | 0.00 | 97 | 1019.1 |
| 20260906110527 | 65 | 71 | 1.7 | 3.5 | 0.00 | 0.00 | 0.00 | 97 | 1019.1 |
| 20260906110033 | 65 | 331 | 0.9 | 2.6 | 0.00 | 0.00 | 0.00 | 97 | 1019.1 |
| 20260906105514 | 65 | 350 | 0.9 | 2.6 | 0.00 | 0.00 | 0.00 | 96 | 1019.2 |
| 20260906105018 | 65 | 340 | 0.0 | 3.5 | 0.00 | 0.00 | 0.00 | 96 | 1019.1 |
| 20260906104519 | 65 | 275 | 0.9 | 4.3 | 0.00 | 0.00 | 0.00 | 97 | 1019.1 |
| 20260906104021 | 65 | 28 | 1.7 | 4.3 | 0.00 | 0.00 | 0.00 | 96 | 1019.0 |
| 20260906103523 | 65 | 22 | 1.7 | 3.5 | 0.00 | 0.00 | 0.00 | 96 | 1019.0 |
| 20260906103028 | 65 | 22 | 1.7 | 2.6 | 0.00 | 0.00 | 0.00 | 96 | 1019.0 |
| 20260906102512 | 65 | 22 | 0.0 | 2.6 | 0.00 | 0.00 | 0.00 | 96 | 1019.1 |
| 20260906102017 | 65 | 22 | 0.9 | 2.6 | 0.00 | 0.00 | 0.00 | 96 | 1019.0 |
| 20260906101517 | 65 | 22 | 0.0 | 1.7 | 0.00 | 0.00 | 0.00 | 96 | 1018.9 |
| 20260906101036 | 65 | 22 | 0.0 | 3.5 | 0.00 | 0.00 | 0.00 | 96 | 1018.7 |
| 20260906100515 | 65 | 22 | 1.7 | 4.3 | 0.00 | 0.00 | 0.00 | 96 | 1018.6 |
| 20260906100017 | 65 | 22 | 0.9 | 4.3 | 0.00 | 0.00 | 0.00 | 96 | 1018.5 |
| 20260906095518 | 65 | 71 | 1.7 | 2.6 | 0.00 | 0.00 | 0.00 | 96 | 1018.5 |
| 20260906095023 | 65 | 325 | 1.7 | 4.3 | 0.00 | 0.00 | 0.00 | 96 | 1018.4 |
| 20260906094525 | 65 | 325 | 0.0 | 4.3 | 0.00 | 0.00 | 0.00 | 96 | 1018.3 |
| 20260906094029 | 65 | 326 | 0.0 | 3.5 | 0.00 | 0.00 | 0.00 | 96 | 1018.3 |
| 20260906093531 | 65 | 326 | 1.7 | 3.5 | 0.00 | 0.00 | 0.00 | 96 | 1018.2 |
| 20260906093017 | 66 | 259 | 1.7 | 2.6 | 0.00 | 0.00 | 0.00 | 96 | 1018.1 |
| 20260906092539 | 66 | 259 | 0.9 | 2.6 | 0.00 | 0.00 | 0.00 | 96 | 1018.1 |
| 20260906092021 | 66 | 317 | 0.9 | 2.6 | 0.00 | 0.00 | 0.00 | 96 | 1018.2 |
| 20260906091524 | 66 | 299 | 0.9 | 2.6 | 0.00 | 0.00 | 0.00 | 96 | 1018.4 |
| 20260906091027 | 66 | 307 | 0.9 | 2.6 | 0.00 | 0.00 | 0.00 | 96 | 1018.4 |
| 20260906090529 | 66 | 19 | 0.0 | 3.5 | 0.00 | 0.00 | 0.00 | 95 | 1018.3 |
| 20260906090013 | 66 | 19 | 1.7 | 4.3 | 0.00 | 0.00 | 0.00 | 95 | 1018.4 |
| 20260906085535 | 66 | 26 | 0.9 | 4.3 | 0.00 | 0.00 | 0.00 | 96 | 1018.4 |
| 20260906085016 | 66 | 338 | 2.6 | 3.5 | 0.00 | 0.00 | 0.00 | 96 | 1018.5 |
| 20260906084519 | 66 | 338 | 1.7 | 2.6 | 0.00 | 0.00 | 0.00 | 96 | 1018.5 |
| 20260906084023 | 67 | 338 | 0.9 | 3.5 | 0.00 | 0.00 | 0.00 | 96 | 1018.5 |
| 20260906083525 | 67 | 338 | 1.7 | 3.5 | 0.00 | 0.00 | 0.00 | 96 | 1018.5 |
| 20260906083030 | 67 | 338 | 1.7 | 3.5 | 0.00 | 0.00 | 0.00 | 96 | 1018.6 |
| 20260906082513 | 67 | 338 | 1.7 | 4.3 | 0.00 | 0.00 | 0.00 | 96 | 1018.7 |
| 20260906082017 | 67 | 338 | 0.9 | 3.5 | 0.00 | 0.00 | 0.00 | 96 | 1018.7 |
| 20260906081517 | 67 | 309 | 0.9 | 3.5 | 0.00 | 0.00 | 0.00 | 96 | 1018.6 |
| 20260906081022 | 67 | 323 | 1.7 | 3.5 | 0.00 | 0.00 | 0.00 | 96 | 1018.5 |
| 20260906080523 | 67 | 350 | 0.9 | 2.6 | 0.00 | 0.00 | 0.00 | 96 | 1018.6 |
| 20260906080030 | 67 | 40 | 0.0 | 3.5 | 0.00 | 0.00 | 0.00 | 96 | 1018.5 |
| 20260906075512 | 67 | 5 | 0.9 | 3.5 | 0.00 | 0.00 | 0.00 | 96 | 1018.6 |
| 20260906075017 | 67 | 360 | 1.7 | 4.3 | 0.00 | 0.00 | 0.00 | 96 | 1018.7 |
| 20260906074521 | 67 | 350 | 2.6 | 4.3 | 0.00 | 0.00 | 0.00 | 96 | 1018.8 |
| 20260906074025 | 67 | 13 | 1.7 | 3.5 | 0.00 | 0.00 | 0.00 | 96 | 1018.8 |
| 20260906073529 | 67 | 13 | 2.6 | 3.5 | 0.00 | 0.00 | 0.00 | 96 | 1018.7 |
| 20260906073014 | 67 | 13 | 1.7 | 4.3 | 0.00 | 0.00 | 0.00 | 96 | 1018.7 |
| 20260906072516 | 67 | 13 | 2.6 | 4.3 | 0.00 | 0.00 | 0.00 | 96 | 1018.6 |
| 20260906072020 | 67 | 60 | 1.7 | 2.6 | 0.00 | 0.00 | 0.00 | 96 | 1018.5 |
| 20260906071521 | 67 | 60 | 0.9 | 3.5 | 0.00 | 0.00 | 0.00 | 96 | 1018.6 |
| 20260906071024 | 67 | 60 | 1.7 | 3.5 | 0.00 | 0.00 | 0.00 | 97 | 1018.7 |
| 20260906070528 | 67 | 65 | 1.7 | 2.6 | 0.00 | 0.00 | 0.00 | 97 | 1018.9 |
| 20260906070013 | 67 | 65 | 1.7 | 3.5 | 0.00 | 0.00 | 0.00 | 97 | 1018.9 |
| 20260906065514 | 66 | 65 | 1.7 | 2.6 | 0.00 | 0.00 | 0.00 | 96 | 1019.1 |
| 20260906065041 | 66 | 65 | 0.0 | 0.9 | 0.00 | 0.00 | 0.00 | 96 | 1019.1 |
| 20260906064541 | 66 | 65 | 0.0 | 0.9 | 0.00 | 0.00 | 0.00 | 96 | 1019.0 |
| 20260906064024 | 66 | 65 | 0.0 | 0.9 | 0.00 | 0.00 | 0.00 | 96 | 1019.0 |
| 20260906063525 | 66 | 65 | 0.0 | 0.9 | 0.00 | 0.00 | 0.00 | 96 | 1019.1 |
| 20260906063026 | 67 | 65 | 0.0 | 1.7 | 0.00 | 0.00 | 0.00 | 96 | 1019.0 |
| 20260906062527 | 67 | 65 | 0.9 | 1.7 | 0.00 | 0.00 | 0.00 | 96 | 1019.0 |
| 20260906062032 | 67 | 65 | 0.0 | 0.9 | 0.00 | 0.00 | 0.00 | 96 | 1019.0 |
| 20260906061536 | 67 | 65 | 0.0 | 0.9 | 0.00 | 0.00 | 0.00 | 96 | 1019.0 |
| 20260906061021 | 67 | 65 | 0.0 | 0.0 | 0.00 | 0.00 | 0.00 | 96 | 1018.9 |
| 20260906060542 | 67 | 65 | 0.0 | 1.7 | 0.00 | 0.00 | 0.00 | 95 | 1018.9 |
| 20260906060048 | 67 | 65 | 0.9 | 1.7 | 0.00 | 0.00 | 0.00 | 96 | 1018.8 |
| 20260906055545 | 67 | 65 | 0.9 | 1.7 | 0.00 | 0.00 | 0.00 | 95 | 1018.8 |
| 20260906055027 | 67 | 65 | 0.9 | 1.7 | 0.00 | 0.00 | 0.00 | 95 | 1018.8 |
| 20260906054530 | 67 | 65 | 0.0 | 0.0 | 0.00 | 0.00 | 0.00 | 95 | 1018.8 |
| 20260906054015 | 67 | 65 | 0.0 | 0.0 | 0.00 | 0.00 | 0.00 | 95 | 1018.7 |
| 20260906053517 | 68 | 65 | 0.0 | 0.9 | 0.00 | 0.00 | 0.00 | 94 | 1018.7 |
| 20260906053021 | 68 | 65 | 0.0 | 1.7 | 0.00 | 0.00 | 0.00 | 94 | 1018.7 |
| 20260906052524 | 68 | 65 | 0.9 | 3.5 | 0.00 | 0.00 | 0.00 | 94 | 1018.7 |
| 20260906052029 | 68 | 65 | 0.9 | 3.5 | 0.00 | 0.00 | 0.00 | 95 | 1018.6 |
| 20260906051530 | 68 | 65 | 1.7 | 2.6 | 0.00 | 0.00 | 0.00 | 95 | 1018.6 |
| 20260906051014 | 68 | 65 | 1.7 | 1.7 | 0.00 | 0.00 | 0.00 | 95 | 1018.6 |
| 20260906050517 | 68 | 64 | 0.0 | 2.6 | 0.00 | 0.00 | 0.00 | 95 | 1018.7 |
| 20260906050020 | 68 | 64 | 0.9 | 2.6 | 0.00 | 0.00 | 0.00 | 95 | 1018.6 |
| 20260906045522 | 68 | 307 | 0.9 | 2.6 | 0.00 | 0.00 | 0.00 | 94 | 1018.5 |
| 20260906045028 | 69 | 307 | 0.9 | 2.6 | 0.00 | 0.00 | 0.00 | 94 | 1018.5 |
| 20260906044512 | 69 | 47 | 0.9 | 2.6 | 0.00 | 0.00 | 0.00 | 94 | 1018.5 |
| 20260906044015 | 68 | 47 | 0.0 | 1.7 | 0.00 | 0.00 | 0.00 | 94 | 1018.7 |
| 20260906043536 | 69 | 47 | 0.9 | 2.6 | 0.00 | 0.00 | 0.00 | 94 | 1018.7 |
| 20260906043020 | 69 | 47 | 0.9 | 2.6 | 0.00 | 0.00 | 0.00 | 94 | 1018.7 |
| 20260906042521 | 69 | 47 | 0.9 | 2.6 | 0.00 | 0.00 | 0.00 | 94 | 1018.8 |
| 20260906042025 | 69 | 47 | 1.7 | 2.6 | 0.00 | 0.00 | 0.00 | 93 | 1018.8 |
| 20260906041526 | 69 | 47 | 0.9 | 2.6 | 0.00 | 0.00 | 0.00 | 93 | 1018.8 |
| 20260906041031 | 69 | 47 | 1.7 | 1.7 | 0.00 | 0.00 | 0.00 | 93 | 1018.8 |
| 20260906040533 | 69 | 47 | 0.0 | 3.5 | 0.00 | 0.00 | 0.00 | 93 | 1018.8 |
| 20260906040018 | 70 | 47 | 1.7 | 3.5 | 0.00 | 0.00 | 0.00 | 94 | 1018.8 |
| 20260906035518 | 70 | 63 | 1.7 | 2.6 | 0.00 | 0.00 | 0.00 | 93 | 1018.8 |
| 20260906035043 | 70 | 63 | 0.9 | 2.6 | 0.00 | 0.00 | 0.00 | 93 | 1018.7 |
| 20260906034523 | 70 | 63 | 1.7 | 2.6 | 0.00 | 0.00 | 0.00 | 93 | 1018.5 |
| 20260906034030 | 70 | 63 | 1.7 | 1.7 | 0.00 | 0.00 | 0.00 | 93 | 1018.4 |
| 20260906033512 | 70 | 63 | 0.9 | 2.6 | 0.00 | 0.00 | 0.00 | 93 | 1018.4 |
| 20260906033017 | 70 | 63 | 1.7 | 2.6 | 0.00 | 0.00 | 0.00 | 93 | 1018.2 |
| 20260906032539 | 70 | 63 | 1.7 | 2.6 | 0.00 | 0.00 | 0.00 | 93 | 1018.2 |
| 20260906032023 | 70 | 63 | 1.7 | 2.6 | 0.00 | 0.00 | 0.00 | 92 | 1018.2 |
| 20260906031525 | 70 | 63 | 1.7 | 2.6 | 0.00 | 0.00 | 0.00 | 93 | 1018.1 |
| 20260906031029 | 70 | 63 | 1.7 | 2.6 | 0.00 | 0.00 | 0.00 | 92 | 1018.0 |
| 20260906030512 | 70 | 63 | 1.7 | 3.5 | 0.00 | 0.00 | 0.00 | 92 | 1018.0 |
| 20260906030037 | 70 | 63 | 1.7 | 3.5 | 0.00 | 0.00 | 0.00 | 92 | 1018.0 |
| 20260906025516 | 70 | 313 | 1.7 | 2.6 | 0.00 | 0.00 | 0.00 | 92 | 1017.9 |
| 20260906025021 | 70 | 313 | 0.0 | 1.7 | 0.00 | 0.00 | 0.00 | 91 | 1017.7 |
| 20260906024544 | 71 | 313 | 0.0 | 1.7 | 0.00 | 0.00 | 0.00 | 91 | 1017.6 |
| 20260906024048 | 71 | 313 | 0.0 | 1.7 | 0.00 | 0.00 | 0.00 | 91 | 1017.5 |
| 20260906023548 | 71 | 313 | 0.9 | 1.7 | 0.00 | 0.00 | 0.00 | 91 | 1017.6 |
| 20260906023030 | 71 | 313 | 0.9 | 1.7 | 0.00 | 0.00 | 0.00 | 90 | 1017.5 |
| 20260906022551 | 71 | 313 | 0.0 | 1.7 | 0.00 | 0.00 | 0.00 | 90 | 1017.5 |
| 20260906022015 | 71 | 313 | 0.9 | 1.7 | 0.00 | 0.00 | 0.00 | 90 | 1017.4 |
| 20260906021518 | 71 | 313 | 0.9 | 1.7 | 0.00 | 0.00 | 0.00 | 90 | 1017.2 |
| 20260906021022 | 71 | 313 | 0.0 | 1.7 | 0.00 | 0.00 | 0.00 | 90 | 1017.3 |
| 20260906020524 | 71 | 313 | 0.0 | 2.6 | 0.00 | 0.00 | 0.00 | 91 | 1017.1 |
| 20260906020029 | 71 | 313 | 1.7 | 2.6 | 0.00 | 0.00 | 0.00 | 92 | 1017.2 |
| 20260906015531 | 71 | 65 | 1.7 | 2.6 | 0.00 | 0.00 | 0.00 | 92 | 1017.1 |
| 20260906015014 | 71 | 65 | 0.9 | 1.7 | 0.00 | 0.00 | 0.00 | 92 | 1016.9 |
| 20260906014516 | 71 | 65 | 0.0 | 1.7 | 0.00 | 0.00 | 0.00 | 91 | 1016.7 |
| 20260906014021 | 71 | 65 | 0.0 | 2.6 | 0.00 | 0.00 | 0.00 | 91 | 1016.7 |
| 20260906013523 | 71 | 65 | 0.9 | 2.6 | 0.00 | 0.00 | 0.00 | 91 | 1016.6 |
| 20260906013029 | 71 | 65 | 0.9 | 1.7 | 0.00 | 0.00 | 0.00 | 92 | 1016.5 |
| 20260906012530 | 71 | 65 | 0.0 | 1.7 | 0.00 | 0.00 | 0.00 | 92 | 1016.4 |
| 20260906012015 | 71 | 65 | 0.0 | 1.7 | 0.00 | 0.00 | 0.00 | 90 | 1016.3 |
| 20260906011517 | 72 | 65 | 0.9 | 1.7 | 0.00 | 0.00 | 0.00 | 91 | 1016.1 |
| 20260906011023 | 72 | 65 | 0.9 | 1.7 | 0.00 | 0.00 | 0.00 | 90 | 1016.0 |
| 20260906010525 | 72 | 65 | 0.0 | 1.7 | 0.00 | 0.00 | 0.00 | 90 | 1016.0 |
| 20260906010029 | 72 | 65 | 0.9 | 1.7 | 0.00 | 0.00 | 0.00 | 90 | 1016.0 |
| 20260906005529 | 72 | 65 | 0.0 | 1.7 | 0.00 | 0.00 | 0.00 | 89 | 1015.9 |
| 20260906005016 | 73 | 65 | 0.9 | 1.7 | 0.00 | 0.00 | 0.00 | 89 | 1015.8 |
| 20260906004521 | 73 | 66 | 1.7 | 1.7 | 0.00 | 0.00 | 0.00 | 89 | 1015.8 |
| 20260906004025 | 73 | 65 | 0.9 | 1.7 | 0.00 | 0.00 | 0.00 | 88 | 1015.8 |
| 20260906003525 | 74 | 65 | 0.9 | 2.6 | 0.00 | 0.00 | 0.00 | 88 | 1015.9 |
| 20260906003030 | 74 | 65 | 1.7 | 2.6 | 0.00 | 0.00 | 0.00 | 87 | 1015.9 |
| 20260906002531 | 74 | 65 | 0.9 | 2.6 | 0.00 | 0.00 | 0.00 | 87 | 1015.9 |
| 20260906002035 | 74 | 350 | 0.9 | 1.7 | 0.00 | 0.00 | 0.00 | 87 | 1015.8 |
| 20260906001516 | 74 | 350 | 0.9 | 1.7 | 0.00 | 0.00 | 0.00 | 87 | 1015.6 |
| 20260906001019 | 74 | 350 | 0.0 | 2.6 | 0.00 | 0.00 | 0.00 | 87 | 1015.6 |
| 20260906000521 | 74 | 350 | 1.7 | 2.6 | 0.00 | 0.00 | 0.00 | 86 | 1015.6 |
| 20260906000024 | 75 | 350 | 1.7 | 2.6 | 0.00 | 0.00 | 0.00 | 86 | 1015.8 |
| 20260905235526 | 75 | 350 | 0.9 | 2.6 | 0.00 | 0.00 | 0.00 | 84 | 1015.8 |
| 20260905235029 | 76 | 350 | 0.9 | 2.6 | 0.00 | 0.00 | 0.00 | 83 | 1015.8 |
| 20260905234527 | 76 | 350 | 0.9 | 1.7 | 0.00 | 0.00 | 0.00 | 84 | 1016.0 |
| 20260905234012 | 76 | 350 | 0.9 | 3.5 | 0.00 | 0.00 | 0.00 | 83 | 1016.1 |
| 20260905233515 | 76 | 350 | 0.9 | 3.5 | 0.00 | 0.00 | 0.00 | 83 | 1015.9 |
| 20260905233041 | 76 | 350 | 0.9 | 2.6 | 0.00 | 0.00 | 0.00 | 83 | 1015.9 |
| 20260905232520 | 76 | 350 | 0.9 | 2.6 | 0.00 | 0.00 | 0.00 | 83 | 1015.9 |
| 20260905232025 | 76 | 350 | 1.7 | 2.6 | 0.00 | 0.00 | 0.00 | 83 | 1016.0 |
| 20260905231525 | 76 | 350 | 1.7 | 2.6 | 0.00 | 0.00 | 0.00 | 82 | 1016.1 |
| 20260905231029 | 76 | 350 | 0.9 | 2.6 | 0.00 | 0.00 | 0.00 | 81 | 1016.1 |
| 20260905230530 | 76 | 350 | 0.9 | 2.6 | 0.00 | 0.00 | 0.00 | 83 | 1016.2 |
| 20260905230014 | 76 | 350 | 0.9 | 2.6 | 0.00 | 0.00 | 0.00 | 81 | 1016.2 |
| 20260905225536 | 76 | 350 | 0.9 | 2.6 | 0.00 | 0.00 | 0.00 | 81 | 1016.3 |
| 20260905225018 | 76 | 350 | 0.9 | 3.5 | 0.00 | 0.00 | 0.00 | 81 | 1016.3 |
| 20260905224521 | 76 | 350 | 1.7 | 3.5 | 0.00 | 0.00 | 0.00 | 80 | 1016.3 |
| 20260905224027 | 76 | 323 | 0.9 | 2.6 | 0.00 | 0.00 | 0.00 | 79 | 1016.3 |
| 20260905223527 | 77 | 323 | 0.9 | 2.6 | 0.00 | 0.00 | 0.00 | 79 | 1016.4 |
| 20260905223033 | 77 | 323 | 1.7 | 3.5 | 0.00 | 0.00 | 0.00 | 79 | 1016.3 |
| 20260905222514 | 77 | 323 | 1.7 | 3.5 | 0.00 | 0.00 | 0.00 | 78 | 1016.4 |
| 20260905222019 | 77 | 323 | 1.7 | 2.6 | 0.00 | 0.00 | 0.00 | 79 | 1016.3 |
| 20260905221522 | 77 | 323 | 0.9 | 2.6 | 0.00 | 0.00 | 0.00 | 78 | 1016.3 |
| 20260905221026 | 77 | 282 | 0.9 | 3.5 | 0.00 | 0.00 | 0.00 | 78 | 1016.3 |
| 20260905220529 | 77 | 45 | 1.7 | 5.2 | 0.00 | 0.00 | 0.00 | 78 | 1016.4 |
| 20260905220052 | 77 | 350 | 1.7 | 5.2 | 0.00 | 0.00 | 0.00 | 78 | 1016.5 |
| 20260905215511 | 77 | 332 | 1.7 | 3.5 | 0.00 | 0.00 | 0.00 | 79 | 1016.5 |
| 20260905215013 | 77 | 24 | 1.7 | 7.0 | 0.00 | 0.00 | 0.00 | 77 | 1016.4 |
| 20260905214514 | 78 | 308 | 0.9 | 7.0 | 0.00 | 0.00 | 0.00 | 76 | 1016.5 |
| 20260905214017 | 78 | 9 | 1.7 | 7.0 | 0.00 | 0.00 | 0.00 | 77 | 1016.6 |
| 20260905213519 | 78 | 230 | 1.7 | 7.0 | 0.00 | 0.00 | 0.00 | 74 | 1016.6 |
| 20260905213023 | 79 | 279 | 1.7 | 7.0 | 0.00 | 0.00 | 0.00 | 74 | 1016.7 |
| 20260905212522 | 79 | 117 | 2.6 | 7.0 | 0.00 | 0.00 | 0.00 | 75 | 1016.8 |
| 20260905212047 | 79 | 134 | 1.7 | 7.0 | 0.00 | 0.00 | 0.00 | 76 | 1016.9 |
| 20260905211523 | 79 | 303 | 2.6 | 9.6 | 0.00 | 0.00 | 0.00 | 73 | 1016.8 |
| 20260905211026 | 79 | 52 | 4.3 | 8.7 | 0.00 | 0.00 | 0.00 | 74 | 1016.9 |
| 20260905210528 | 80 | 20 | 5.2 | 9.6 | 0.00 | 0.00 | 0.00 | 74 | 1016.8 |
| 20260905210013 | 79 | 350 | 2.6 | 9.6 | 0.00 | 0.00 | 0.00 | 77 | 1016.7 |
| 20260905205515 | 80 | 325 | 4.3 | 9.6 | 0.00 | 0.00 | 0.00 | 78 | 1016.7 |
| 20260905205018 | 79 | 18 | 2.6 | 9.6 | 0.00 | 0.00 | 0.00 | 74 | 1016.7 |
| 20260905204540 | 79 | 41 | 1.7 | 9.6 | 0.00 | 0.00 | 0.00 | 78 | 1016.7 |
| 20260905204024 | 80 | 35 | 4.3 | 9.6 | 0.00 | 0.00 | 0.00 | 78 | 1016.7 |
| 20260905203524 | 80 | 11 | 4.3 | 9.6 | 0.00 | 0.00 | 0.00 | 76 | 1016.6 |
| 20260905203028 | 80 | 247 | 2.6 | 11.3 | 0.00 | 0.00 | 0.00 | 79 | 1016.7 |
| 20260905202528 | 79 | 44 | 5.2 | 11.3 | 0.00 | 0.00 | 0.00 | 79 | 1016.7 |
| 20260905202032 | 79 | 344 | 3.5 | 10.4 | 0.00 | 0.00 | 0.00 | 78 | 1016.8 |
| 20260905201513 | 79 | 23 | 3.5 | 7.8 | 0.00 | 0.00 | 0.00 | 78 | 1016.8 |
| 20260905201014 | 80 | 325 | 3.5 | 8.7 | 0.00 | 0.00 | 0.00 | 78 | 1016.8 |
| 20260905200514 | 81 | 259 | 4.3 | 11.3 | 0.00 | 0.00 | 0.00 | 77 | 1016.7 |
| 20260905200019 | 80 | 44 | 3.5 | 11.3 | 0.00 | 0.00 | 0.00 | 77 | 1016.7 |
| 20260905195520 | 80 | 200 | 3.5 | 7.8 | 0.00 | 0.00 | 0.00 | 77 | 1016.7 |
| 20260905195025 | 80 | 294 | 1.7 | 7.8 | 0.00 | 0.00 | 0.00 | 79 | 1016.8 |
| 20260905194529 | 80 | 23 | 2.6 | 8.7 | 0.00 | 0.00 | 0.00 | 77 | 1016.8 |
| 20260905194013 | 81 | 344 | 6.1 | 8.7 | 0.00 | 0.00 | 0.00 | 80 | 1016.9 |
| 20260905193514 | 81 | 248 | 2.6 | 7.8 | 0.00 | 0.00 | 0.00 | 75 | 1016.9 |
| 20260905193018 | 81 | 137 | 3.5 | 7.8 | 0.00 | 0.00 | 0.00 | 78 | 1016.9 |
| 20260905192522 | 80 | 229 | 2.6 | 6.1 | 0.00 | 0.00 | 0.00 | 75 | 1016.9 |
| 20260905192028 | 80 | 78 | 2.6 | 7.0 | 0.00 | 0.00 | 0.00 | 79 | 1017.0 |
| 20260905191528 | 79 | 336 | 2.6 | 7.8 | 0.00 | 0.00 | 0.00 | 79 | 1017.1 |
| 20260905191013 | 79 | 71 | 2.6 | 7.0 | 0.00 | 0.00 | 0.00 | 79 | 1017.2 |
| 20260905190516 | 79 | 331 | 2.6 | 4.3 | 0.00 | 0.00 | 0.00 | 79 | 1017.2 |
| 20260905190021 | 79 | 338 | 1.7 | 8.7 | 0.00 | 0.00 | 0.00 | 78 | 1017.2 |
| 20260905185522 | 79 | 317 | 4.3 | 8.7 | 0.00 | 0.00 | 0.00 | 78 | 1017.2 |
| 20260905185025 | 80 | 87 | 3.5 | 8.7 | 0.00 | 0.00 | 0.00 | 77 | 1017.0 |
| 20260905184527 | 80 | 119 | 2.6 | 7.0 | 0.00 | 0.00 | 0.00 | 76 | 1016.8 |
| 20260905184013 | 80 | 98 | 3.5 | 7.0 | 0.00 | 0.00 | 0.00 | 77 | 1016.9 |
| 20260905183515 | 80 | 295 | 1.7 | 4.3 | 0.00 | 0.00 | 0.00 | 77 | 1016.9 |
| 20260905183021 | 80 | 306 | 2.6 | 7.0 | 0.00 | 0.00 | 0.00 | 80 | 1016.9 |
| 20260905182523 | 79 | 218 | 1.7 | 7.8 | 0.00 | 0.00 | 0.00 | 76 | 1016.9 |
| 20260905182027 | 79 | 350 | 3.5 | 7.8 | 0.00 | 0.00 | 0.00 | 76 | 1016.9 |
| 20260905181529 | 80 | 138 | 1.7 | 8.7 | 0.00 | 0.00 | 0.00 | 78 | 1017.0 |
| 20260905181015 | 79 | 145 | 3.5 | 8.7 | 0.00 | 0.00 | 0.00 | 80 | 1017.0 |
| 20260905180519 | 79 | 101 | 4.3 | 7.0 | 0.00 | 0.00 | 0.00 | 80 | 1017.0 |
| 20260905180043 | 79 | 226 | 1.7 | 4.3 | 0.00 | 0.00 | 0.00 | 79 | 1017.1 |
| 20260905175525 | 79 | 315 | 1.7 | 4.3 | 0.00 | 0.00 | 0.00 | 77 | 1017.2 |
| 20260905175031 | 79 | 317 | 1.7 | 4.3 | 0.00 | 0.00 | 0.00 | 76 | 1017.4 |
| 20260905174512 | 80 | 333 | 1.7 | 7.0 | 0.00 | 0.00 | 0.00 | 75 | 1017.3 |
| 20260905174016 | 80 | 331 | 2.6 | 7.0 | 0.00 | 0.00 | 0.00 | 76 | 1017.3 |
| 20260905173517 | 81 | 138 | 3.5 | 7.8 | 0.00 | 0.00 | 0.00 | 78 | 1017.3 |
| 20260905173041 | 80 | 173 | 5.2 | 8.7 | 0.00 | 0.00 | 0.00 | 81 | 1017.3 |
| 20260905172522 | 80 | 156 | 4.3 | 8.7 | 0.00 | 0.00 | 0.00 | 77 | 1017.3 |
| 20260905172026 | 79 | 167 | 0.9 | 4.3 | 0.00 | 0.00 | 0.00 | 81 | 1017.4 |
| 20260905171545 | 78 | 141 | 1.7 | 4.3 | 0.00 | 0.00 | 0.00 | 81 | 1017.4 |
| 20260905171030 | 79 | 192 | 0.9 | 5.2 | 0.00 | 0.00 | 0.00 | 81 | 1017.4 |
| 20260905170511 | 80 | 121 | 1.7 | 7.8 | 0.00 | 0.00 | 0.00 | 80 | 1017.4 |
| 20260905170016 | 79 | 20 | 2.6 | 7.8 | 0.00 | 0.00 | 0.00 | 78 | 1017.5 |
| 20260905165537 | 79 | 129 | 1.7 | 5.2 | 0.00 | 0.00 | 0.00 | 82 | 1017.5 |
| 20260905165040 | 78 | 126 | 1.7 | 7.0 | 0.00 | 0.00 | 0.00 | 82 | 1017.5 |
| 20260905164524 | 78 | 15 | 3.5 | 7.0 | 0.00 | 0.00 | 0.00 | 85 | 1017.5 |
| 20260905164030 | 77 | 55 | 0.9 | 8.7 | 0.00 | 0.00 | 0.00 | 86 | 1017.5 |
| 20260905163512 | 77 | 5 | 5.2 | 8.7 | 0.00 | 0.00 | 0.00 | 85 | 1017.5 |
| 20260905163038 | 77 | 301 | 2.6 | 6.1 | 0.00 | 0.00 | 0.00 | 84 | 1017.5 |
| 20260905162519 | 77 | 169 | 1.7 | 7.0 | 0.00 | 0.00 | 0.00 | 85 | 1017.5 |
| 20260905162024 | 77 | 15 | 3.5 | 7.0 | 0.00 | 0.00 | 0.00 | 86 | 1017.4 |
| 20260905161526 | 77 | 317 | 2.6 | 4.3 | 0.00 | 0.00 | 0.00 | 86 | 1017.4 |
| 20260905161032 | 76 | 102 | 0.9 | 5.2 | 0.00 | 0.00 | 0.00 | 86 | 1017.4 |
| 20260905160514 | 76 | 50 | 2.6 | 7.8 | 0.00 | 0.00 | 0.00 | 87 | 1017.4 |
| 20260905160020 | 76 | 324 | 3.5 | 7.8 | 0.00 | 0.00 | 0.00 | 87 | 1017.4 |
| 20260905155523 | 76 | 360 | 1.7 | 5.2 | 0.00 | 0.00 | 0.00 | 89 | 1017.4 |
| 20260905155045 | 76 | 5 | 1.7 | 3.5 | 0.00 | 0.00 | 0.00 | 89 | 1017.3 |
| 20260905154525 | 76 | 85 | 0.9 | 1.7 | 0.00 | 0.00 | 0.00 | 90 | 1017.3 |
| 20260905154050 | 75 | 85 | 0.9 | 2.6 | 0.00 | 0.00 | 0.00 | 88 | 1017.3 |
| 20260905153530 | 75 | 216 | 0.9 | 2.6 | 0.00 | 0.00 | 0.00 | 89 | 1017.4 |
| 20260905153014 | 75 | 321 | 0.9 | 2.6 | 0.00 | 0.00 | 0.00 | 89 | 1017.4 |
| 20260905152536 | 75 | 321 | 1.7 | 3.5 | 0.00 | 0.00 | 0.00 | 89 | 1017.3 |
| 20260905152019 | 74 | 321 | 1.7 | 4.3 | 0.00 | 0.00 | 0.00 | 90 | 1017.3 |
| 20260905151542 | 74 | 11 | 2.6 | 4.3 | 0.00 | 0.00 | 0.00 | 89 | 1017.3 |
| 20260905151028 | 74 | 343 | 1.7 | 4.3 | 0.00 | 0.00 | 0.00 | 89 | 1017.3 |
| 20260905150529 | 74 | 360 | 2.6 | 4.3 | 0.00 | 0.00 | 0.00 | 90 | 1017.2 |
| 20260905150014 | 74 | 122 | 0.9 | 3.5 | 0.00 | 0.00 | 0.00 | 90 | 1017.0 |
| 20260905145516 | 74 | 38 | 1.7 | 4.3 | 0.00 | 0.00 | 0.00 | 90 | 1017.0 |
| 20260905145022 | 74 | 350 | 1.7 | 4.3 | 0.00 | 0.00 | 0.00 | 90 | 1016.9 |
| 20260905144544 | 74 | 9 | 2.6 | 4.3 | 0.00 | 0.00 | 0.00 | 90 | 1016.9 |
| 20260905144027 | 74 | 360 | 2.6 | 3.5 | 0.00 | 0.00 | 0.00 | 90 | 1016.9 |
| 20260905143526 | 74 | 72 | 1.7 | 3.5 | 0.00 | 0.00 | 0.00 | 90 | 1016.9 |
| 20260905143031 | 74 | 65 | 2.6 | 3.5 | 0.00 | 0.00 | 0.00 | 90 | 1016.9 |
| 20260905142513 | 74 | 281 | 1.7 | 3.5 | 0.00 | 0.00 | 0.00 | 90 | 1016.8 |
| 20260905142018 | 74 | 88 | 1.7 | 3.5 | 0.00 | 0.00 | 0.00 | 90 | 1016.8 |
| 20260905141537 | 74 | 58 | 0.0 | 2.6 | 0.00 | 0.00 | 0.00 | 91 | 1016.7 |
| 20260905141023 | 74 | 58 | 1.7 | 2.6 | 0.00 | 0.00 | 0.00 | 91 | 1016.7 |
| 20260905140524 | 74 | 350 | 1.7 | 4.3 | 0.00 | 0.00 | 0.00 | 91 | 1016.6 |
| 20260905140030 | 74 | 31 | 1.7 | 4.3 | 0.00 | 0.00 | 0.00 | 92 | 1016.6 |
| 20260905135533 | 73 | 332 | 1.7 | 3.5 | 0.00 | 0.00 | 0.00 | 91 | 1016.5 |
| 20260905135017 | 73 | 330 | 1.7 | 4.3 | 0.00 | 0.00 | 0.00 | 92 | 1016.3 |
| 20260905134518 | 73 | 333 | 1.7 | 4.3 | 0.00 | 0.00 | 0.00 | 92 | 1016.4 |
| 20260905134045 | 73 | 311 | 2.6 | 7.0 | 0.00 | 0.00 | 0.00 | 92 | 1016.3 |
| 20260905133525 | 73 | 360 | 4.3 | 7.0 | 0.00 | 0.00 | 0.00 | 92 | 1016.1 |
| 20260905133052 | 73 | 306 | 2.6 | 5.2 | 0.00 | 0.00 | 0.00 | 92 | 1016.0 |
| 20260905132512 | 73 | 327 | 2.6 | 4.3 | 0.00 | 0.00 | 0.00 | 92 | 1016.0 |
| 20260905132037 | 73 | 312 | 0.9 | 4.3 | 0.00 | 0.00 | 0.00 | 92 | 1015.9 |
| 20260905131518 | 73 | 315 | 2.6 | 4.3 | 0.00 | 0.00 | 0.00 | 92 | 1015.8 |
| 20260905131022 | 73 | 350 | 2.6 | 3.5 | 0.00 | 0.00 | 0.00 | 92 | 1015.8 |
| 20260905130525 | 73 | 350 | 0.9 | 2.6 | 0.00 | 0.00 | 0.00 | 92 | 1015.6 |
| 20260905130031 | 73 | 80 | 0.9 | 3.5 | 0.00 | 0.00 | 0.00 | 92 | 1015.9 |